Theta_e
323 321 320 318 319 317 316 315 315 313 312 312 312 312 310 307 306 304 302 299 299 300
320 320 317 314 313 312 310 307 306 304 303 302 302 301 298 297 295 295 294 293 293 293
311 313 310 308 306 304 302 302 299 297 296 295 294 293 292 291 291 290 290 290 289 289
301 301 301 300 299 296 295 294 293 292 291 290 290 289 289 288 288 287 287 287 287 287
296 297 296 294 293 292 291 291 291 290 289 288 287 287 287 286 286 285 285 285 285 285
291 292 292 291 290 290 289 289 287 287 287 286 286 286 285 285 285 284 284 284 283 283
288 289 289 288 288 287 287 286 286 285 284 285 284 285 284 284 284 283 283 283 283 283
286 287 287 286 286 285 285 285 284 284 283 284 285 285 284 284 284 283 282 282 282 283
286 285 285 284 284 284 284 283 283 283 283 284 285 290 289 285 283 282 282 281 281 282
285 284 284 284 283 283 283 283 282 282 283 283 285 289 289 286 283 282 281 281 282 282
284 283 283 283 282 282 282 281 281 281 282 282 285 289 287 285 282 282 282 282 282 282
283 282 282 282 281 280 279 279 279 280 280 280 280 287 287 284 282 282 282 282 282 283
282 282 282 281 279 278 279 279 280 280 278 277 277 286 287 284 281 277 280 281 282 283
281 281 280 279 277 278 278 278 277 277 275 275 277 278 285 286 281 279 277 277 278 280
Wind_Speed
10 7 6 5 4 4 4 4 5 6 6 6 6 6 7 5 5 6 6 7 5 4
6 9 7 7 7 5 7 6 7 8 7 7 7 8 7 6 5 6 6 5 6 4
6 6 9 9 10 9 7 9 9 8 8 8 7 8 8 6 5 7 4 4 6 5
6 8 9 9 9 8 7 9 9 8 8 8 8 6 8 7 6 8 6 5 6 6
8 9 10 10 8 7 10 8 10 9 9 8 7 6 7 8 6 7 6 5 5 5
7 8 10 10 8 8 11 10 9 9 8 7 7 7 6 7 6 6 6 5 5 5
7 7 8 9 9 9 9 11 9 7 7 7 7 6 6 6 6 6 5 5 5 4
7 8 8 8 8 8 9 8 8 9 7 6 6 4 6 6 5 5 5 5 4 4
9 8 8 8 8 8 8 7 7 6 7 7 4 10 9 7 5 5 5 4 4 4
9 9 8 8 9 8 7 6 7 6 7 6 6 10 9 8 4 5 4 4 3 3
9 9 8 8 8 6 5 6 5 6 6 6 5 11 10 9 5 5 5 4 2 3
9 9 8 8 7 5 5 3 2 4 6 7 4 11 10 7 4 4 4 3 1 2
8 9 9 7 6 3 3 4 5 6 4 5 5 6 6 6 2 3 1 2 3 4
7 8 7 7 3 5 6 6 4 5 3 4 4 3 6 6 3 3 1 1 2 3
Wind_Direction
190 190 186 165 147 139 127 123 107 95 89 85 75 78 81 73 61 68 68 61 50 62
187 183 158 133 123 120 118 111 102 93 90 77 84 81 77 77 80 79 75 71 67 74
163 142 129 129 125 123 122 115 104 100 100 92 84 89 96 87 78 87 70 72 75 62
119 116 112 116 114 117 119 111 112 112 101 98 96 88 91 92 90 84 78 60 70 61
117 118 115 112 113 122 115 106 112 108 102 101 98 96 92 89 82 90 83 71 71 58
108 119 119 119 117 122 118 110 101 106 109 106 96 92 90 104 102 90 86 78 71 59
124 118 117 117 122 120 117 113 107 101 104 105 111 109 110 103 94 86 78 77 78 80
108 109 112 108 107 104 103 108 112 114 107 110 107 113 103 96 96 101 98 82 78 69
124 124 120 116 117 110 110 112 109 116 117 109 98 105 110 115 116 105 99 96 77 74
131 129 128 126 121 122 124 121 123 119 117 117 109 120 120 117 111 106 95 93 88 59
136 134 134 128 126 123 131 130 134 122 120 116 126 134 124 121 118 115 113 107 78 41
146 143 142 139 140 133 117 113 111 130 135 136 136 139 137 131 131 117 120 132 95 59
146 145 149 143 138 115 118 131 134 132 133 135 143 143 140 145 134 119 188 223 194 222
142 143 139 128 114 137 131 127 125 124 141 146 154 172 158 149 133 158 135 248 269 254